When you browse on this site, cookies collect data to enhance your experience and personalize the content and advertising you see.
Visit our Privacy Policy to learn more. By continuing to use the site, you agree to this use of cookies and data.
  • Em Portugal
  • Lista de países
  • Para 7 dias
  • Temperatura da água
  • Mapas de satélite
  • Mapa do tempo
  • Widgets de tempo
  • user-avatar
    Iniciar Sessão

    Previsão horária em Gintro

    Hoje, 19 Fevereiro, Terça-feira

    Tempo Temperatura Precipitação Vento Pressão Humidade
    00:00 +3°C° 0 mm 4 m/s 760 mmHg 86%
    01:00 +2°C° 0 mm 3 m/s 760 mmHg 87%
    02:00 +2°C° 0 mm 3 m/s 759 mmHg 86%
    03:00 +2°C° 0 mm 3 m/s 759 mmHg 85%
    04:00 +2°C° 0 mm 3 m/s 758 mmHg 85%
    05:00 +1°C° 0 mm 4 m/s 758 mmHg 85%
    06:00 +1°C° 0 mm 4 m/s 757 mmHg 85%
    07:00 +1°C° 0 mm 4 m/s 757 mmHg 84%
    08:00 +2°C° 0 mm 5 m/s 757 mmHg 79%
    09:00 +3°C° 0 mm 5 m/s 756 mmHg 75%
    10:00 +4°C° 0 mm 6 m/s 756 mmHg 70%
    11:00 +5°C° 0 mm 6 m/s 756 mmHg 68%
    12:00 +7°C° 0 mm 6 m/s 756 mmHg 67%
    13:00 +8°C° 0 mm 6 m/s 756 mmHg 65%
    14:00 +8°C° 0.1 mm 6 m/s 756 mmHg 69%
    15:00 +8°C° 0.1 mm 5 m/s 756 mmHg 73%
    16:00 +7°C° 0.1 mm 5 m/s 756 mmHg 77%
    17:00 +7°C° 0.1 mm 4 m/s 756 mmHg 79%
    18:00 +6°C° 0.1 mm 4 m/s 756 mmHg 80%
    19:00 +5°C° 0.1 mm 4 m/s 756 mmHg 81%
    20:00 +5°C° 0 mm 4 m/s 756 mmHg 82%
    21:00 +5°C° 0 mm 4 m/s 755 mmHg 82%
    22:00 +5°C° 0 mm 5 m/s 755 mmHg 82%
    23:00 +3°C° 0.1 mm 5 m/s 755 mmHg 82%

    Amanhã, 20 Fevereiro, Quarta-feira

    Tempo Temperatura Precipitação Vento Pressão Humidade
    00:00 +3°C° 0.1 mm 5 m/s 755 mmHg 82%
    01:00 +3°C° 0.1 mm 5 m/s 755 mmHg 82%
    02:00 +3°C° 0.1 mm 5 m/s 755 mmHg 81%
    03:00 +3°C° 0.1 mm 5 m/s 755 mmHg 81%
    04:00 +3°C° 0.1 mm 6 m/s 755 mmHg 80%
    05:00 +3°C° 0.1 mm 6 m/s 756 mmHg 79%
    06:00 +3°C° 0.1 mm 6 m/s 756 mmHg 79%
    07:00 +3°C° 0.1 mm 6 m/s 756 mmHg 78%
    08:00 +3°C° 0 mm 6 m/s 757 mmHg 76%
    09:00 +3°C° 0 mm 7 m/s 757 mmHg 73%
    10:00 +4°C° 0 mm 8 m/s 757 mmHg 70%
    11:00 +4°C° 0 mm 8 m/s 758 mmHg 69%
    12:00 +4°C° 0 mm 8 m/s 759 mmHg 68%
    13:00 +4°C° 0 mm 8 m/s 759 mmHg 68%
    14:00 +4°C° 0 mm 7 m/s 759 mmHg 69%
    15:00 +4°C° 0 mm 7 m/s 760 mmHg 71%
    16:00 +4°C° 0 mm 6 m/s 760 mmHg 73%
    17:00 +3°C° 0 mm 5 m/s 761 mmHg 75%
    18:00 +3°C° 0 mm 5 m/s 761 mmHg 78%
    19:00 +4°C° 0 mm 4 m/s 762 mmHg 80%
    20:00 +3°C° 0 mm 3 m/s 762 mmHg 82%
    21:00 +3°C° 0 mm 3 m/s 762 mmHg 83%
    22:00 +4°C° 0 mm 2 m/s 763 mmHg 85%
    23:00 +4°C° 0 mm 2 m/s 763 mmHg 87%

    Depois de amanhã, 21 Fevereiro, Quinta-feira

    Tempo Temperatura Precipitação Vento Pressão Humidade
    00:00 +3°C° 0 mm 2 m/s 763 mmHg 89%
    01:00 +4°C° 0 mm 1 m/s 763 mmHg 91%
    02:00 +4°C° 0.1 mm 1 m/s 763 mmHg 93%
    03:00 +3°C° 0.1 mm 2 m/s 763 mmHg 94%
    04:00 +3°C° 0.1 mm 2 m/s 762 mmHg 95%
    05:00 +3°C° 0.4 mm 2 m/s 762 mmHg 96%
    06:00 +3°C° 0.4 mm 2 m/s 762 mmHg 96%
    07:00 +4°C° 0.4 mm 2 m/s 762 mmHg 97%
    08:00 +4°C° 0.5 mm 2 m/s 762 mmHg 96%
    09:00 +5°C° 0.5 mm 2 m/s 762 mmHg 95%
    10:00 +5°C° 0.5 mm 2 m/s 762 mmHg 94%
    11:00 +5°C° 0.6 mm 2 m/s 762 mmHg 93%
    12:00 +5°C° 0.6 mm 2 m/s 762 mmHg 93%
    13:00 +6°C° 0.6 mm 2 m/s 761 mmHg 92%
    14:00 +6°C° 0.2 mm 2 m/s 761 mmHg 92%
    15:00 +6°C° 0.2 mm 2 m/s 761 mmHg 92%
    16:00 +6°C° 0.2 mm 2 m/s 761 mmHg 91%
    17:00 +6°C° 0.4 mm 2 m/s 761 mmHg 93%
    18:00 +5°C° 0.4 mm 2 m/s 761 mmHg 94%
    19:00 +5°C° 0.4 mm 2 m/s 762 mmHg 95%
    20:00 +2°C° 1 mm 3 m/s 762 mmHg 93%
    21:00 0°C° 1 mm 5 m/s 763 mmHg 90%
    22:00 -2°C° 1 mm 6 m/s 764 mmHg 88%
    23:00 -3°C° 0 mm 6 m/s 765 mmHg 86%

    22 Fevereiro, Sexta-feira

    Tempo Temperatura Precipitação Vento Pressão Humidade
    00:00 -3°C° 0 mm 6 m/s 766 mmHg 84%
    01:00 -4°C° 0 mm 5 m/s 767 mmHg 82%
    02:00 -4°C° 0 mm 5 m/s 768 mmHg 79%
    03:00 -5°C° 0 mm 5 m/s 769 mmHg 76%
    04:00 -5°C° 0 mm 5 m/s 770 mmHg 72%
    05:00 -5°C° 0 mm 5 m/s 771 mmHg 71%
    06:00 -4°C° 0 mm 4 m/s 772 mmHg 69%
    07:00 -5°C° 0 mm 4 m/s 773 mmHg 68%
    08:00 -4°C° 0 mm 4 m/s 774 mmHg 64%
    09:00 -4°C° 0 mm 4 m/s 774 mmHg 60%
    10:00 -3°C° 0 mm 4 m/s 775 mmHg 56%
    11:00 -3°C° 0 mm 4 m/s 776 mmHg 53%
    12:00 -2°C° 0 mm 3 m/s 776 mmHg 50%
    13:00 -1°C° 0 mm 3 m/s 776 mmHg 48%
    14:00 -1°C° 0 mm 3 m/s 777 mmHg 49%
    15:00 -2°C° 0 mm 3 m/s 777 mmHg 51%
    16:00 -2°C° 0 mm 3 m/s 778 mmHg 53%
    17:00 -2°C° 0 mm 3 m/s 778 mmHg 57%
    18:00 -3°C° 0 mm 2 m/s 778 mmHg 61%
    19:00 -3°C° 0 mm 2 m/s 778 mmHg 65%
    20:00 -1°C° 0 mm 1 m/s 778 mmHg 64%
    21:00 -1°C° 0 mm 1 m/s 779 mmHg 63%
    22:00 -1°C° 0 mm 1 m/s 779 mmHg 62%
    23:00 -1°C° 0 mm 1 m/s 779 mmHg 62%

    23 Fevereiro, Sábado

    Tempo Temperatura Precipitação Vento Pressão Humidade
    00:00 -1°C° 0 mm 1 m/s 779 mmHg 62%
    01:00 -2°C° 0 mm 0 m/s 779 mmHg 62%
    02:00 -1°C° 0 mm 1 m/s 779 mmHg 63%
    03:00 -1°C° 0 mm 1 m/s 778 mmHg 64%
    04:00 -1°C° 0 mm 1 m/s 778 mmHg 65%
    05:00 -1°C° 0 mm 1 m/s 778 mmHg 66%
    06:00 -1°C° 0 mm 1 m/s 778 mmHg 66%
    07:00 -1°C° 0 mm 1 m/s 778 mmHg 67%
    08:00 0°C° 0 mm 1 m/s 778 mmHg 63%
    09:00 +1°C° 0 mm 1 m/s 778 mmHg 60%
    10:00 +1°C° 0 mm 1 m/s 778 mmHg 56%
    11:00 +1°C° 0 mm 2 m/s 778 mmHg 53%
    12:00 +1°C° 0 mm 2 m/s 777 mmHg 50%
    13:00 +2°C° 0 mm 2 m/s 777 mmHg 47%
    14:00 +2°C° 0 mm 2 m/s 777 mmHg 49%
    15:00 +2°C° 0 mm 2 m/s 776 mmHg 50%
    16:00 +3°C° 0 mm 1 m/s 776 mmHg 51%
    17:00 +2°C° 0 mm 1 m/s 776 mmHg 55%
    18:00 +2°C° 0 mm 1 m/s 776 mmHg 58%
    19:00 +2°C° 0 mm 1 m/s 776 mmHg 61%
    20:00 +2°C° 0 mm 1 m/s 776 mmHg 64%
    21:00 +2°C° 0 mm 1 m/s 775 mmHg 67%
    22:00 +2°C° 0 mm 1 m/s 775 mmHg 70%
    23:00 +1°C° 0 mm 1 m/s 775 mmHg 72%

    24 Fevereiro, Domingo

    Tempo Temperatura Precipitação Vento Pressão Humidade
    00:00 +1°C° 0 mm 1 m/s 775 mmHg 74%
    01:00 +1°C° 0 mm 1 m/s 776 mmHg 75%
    02:00 +1°C° 0 mm 1 m/s 776 mmHg 77%
    03:00 +1°C° 0 mm 1 m/s 776 mmHg 78%
    04:00 -1°C° 0 mm 2 m/s 776 mmHg 80%
    05:00 -1°C° 0 mm 2 m/s 776 mmHg 81%
    06:00 -1°C° 0 mm 2 m/s 776 mmHg 82%
    07:00 -1°C° 0 mm 2 m/s 776 mmHg 83%
    08:00 +1°C° 0 mm 2 m/s 776 mmHg 81%
    09:00 +2°C° 0 mm 2 m/s 777 mmHg 78%
    10:00 +3°C° 0 mm 2 m/s 777 mmHg 75%
    11:00 +4°C° 0 mm 2 m/s 777 mmHg 74%
    12:00 +4°C° 0 mm 2 m/s 777 mmHg 72%
    13:00 +5°C° 0 mm 2 m/s 777 mmHg 71%
    14:00 +5°C° 0 mm 2 m/s 777 mmHg 74%
    15:00 +5°C° 0 mm 2 m/s 777 mmHg 76%
    16:00 +5°C° 0 mm 2 m/s 776 mmHg 79%
    17:00 +4°C° 0 mm 2 m/s 776 mmHg 83%
    18:00 +3°C° 0 mm 2 m/s 776 mmHg 86%
    19:00 +1°C° 0 mm 3 m/s 776 mmHg 89%
    20:00 +1°C° 0 mm 3 m/s 776 mmHg 90%
    21:00 +1°C° 0 mm 3 m/s 776 mmHg 92%
    22:00 +1°C° 0 mm 3 m/s 776 mmHg 93%
    23:00 +1°C° 0 mm 3 m/s 775 mmHg 93%
    Mostrar mais